Weather History for KEVV - December, 2011

Change the Weather History Date:

Monday, December 19, 2011

  Actual Average Record
Temperature  
Mean Temperature 47 °F 35 °F  
Max Temperature 51 °F 43 °F 67 °F (1976)
Min Temperature 42 °F 26 °F -9 °F (1963)
Degree Days  
Heating Degree Days 18 30  
Month to date heating degree days 475 534  
Since 1 July heating degree days 1209 1395  
Cooling Degree Days 0 0  
Month to date cooling degree days 0 0  
Year to date cooling degree days 1646 1397  
Moisture  
Dew Point 38 °F    
Average Humidity 68    
Maximum Humidity 80    
Minimum Humidity 56    
Precipitation  
Precipitation T in 0.12 in 1.23 in (1957)
Month to date precipitation 4.31 2.39  
Year to date precipitation 68.30 43.94  
Snow  
Snow 0.00 in 0.20 in 0.70 in (1995)
Month to date snowfall 0.0 1.7  
Since 1 July snowfall 0.1 2.0  
Snow Depth 0.00 in    
Sea Level Pressure  
Sea Level Pressure 30.13 in    
Wind  
Wind Speed 7 mph (SSW)    
Max Wind Speed 22 mph    
Max Gust Speed 28 mph    
Visibility 10 miles    
Events Rain    
T = Trace of Precipitation, MM = Missing Value Source: NWS Daily Summary

Daily Weather History Graph

Daily Weather History Graph

Search for Another Location

Airport or City:

Trip Planner

Search our weather history database for the weather conditions in past years. The results will help you decide how hot, cold, wet, or windy it might be!

Date:

Astronomy

Dec. 19, 2011 Rise Set
Actual Time 7:01 AM CST 4:32 PM CST
Civil Twilight 6:31 AM CST 5:02 PM CST
Nautical Twilight 5:58 AM CST 5:35 PM CST
Astronomical Twilight 5:26 AM CST 6:07 PM CST
Moon 1:14 AM CST (12/19) 12:28 PM CST (12/19)
Length of Visible Light 10h 30m
Length of Day
9h 31m
Waning Crescent, 31% of the Moon is Illuminated
Dec 19
Waning Crescent
Dec 24
New
Jan 1
First Quarter
Jan 9
Full
Jan 16
Last Quarter

Hourly Weather History & Observations

Time (CST) Temp. Windchill Dew Point Humidity Pressure Visibility Wind Dir Wind Speed Gust Speed Precip Events Conditions
12:54 AM 45.0 °F 40.6 °F 34.0 °F 65% 30.13 in 10.0 mi SSW 8.1 mph - N/A   Overcast
1:54 AM 46.0 °F 41.0 °F 34.0 °F 63% 30.13 in 10.0 mi SSW 10.4 mph - N/A   Overcast
2:54 AM 46.0 °F 41.0 °F 35.1 °F 66% 30.13 in 10.0 mi SSW 10.4 mph - N/A   Overcast
3:54 AM 46.9 °F - 34.0 °F 61% 30.12 in 10.0 mi SSW 8.1 mph - N/A   Overcast
4:54 AM 48.0 °F - 34.0 °F 58% 30.12 in 10.0 mi SSW 13.8 mph 19.6 mph N/A   Overcast
5:54 AM 48.0 °F - 35.1 °F 61% 30.13 in 10.0 mi SSW 11.5 mph - 0.00 in   Overcast
6:54 AM 48.0 °F - 35.1 °F 61% 30.14 in 10.0 mi SW 11.5 mph - N/A   Overcast
7:54 AM 48.0 °F - 36.0 °F 63% 30.14 in 10.0 mi South 9.2 mph - N/A   Mostly Cloudy
8:54 AM 48.9 °F - 36.0 °F 61% 30.16 in 10.0 mi SSW 11.5 mph - N/A   Overcast
9:54 AM 50.0 °F - 37.0 °F 61% 30.16 in 10.0 mi SSW 13.8 mph - 0.00 in   Overcast
10:54 AM 50.0 °F - 37.0 °F 61% 30.15 in 10.0 mi SSW 11.5 mph - N/A   Overcast
11:54 AM 51.1 °F - 37.0 °F 59% 30.12 in 10.0 mi SW 10.4 mph - N/A   Overcast
12:54 PM 51.1 °F - 37.9 °F 61% 30.12 in 10.0 mi SW 18.4 mph 25.3 mph N/A   Overcast
1:08 PM 48.2 °F - 39.2 °F 71% 30.13 in 10.0 mi SW 21.9 mph 27.6 mph 0.00 in Rain Light Rain
1:40 PM 46.4 °F 42.4 °F 42.8 °F 87% 30.11 in 10.0 mi SSW 8.1 mph - 0.00 in   Overcast
1:54 PM 48.0 °F - 43.0 °F 83% 30.12 in 10.0 mi SW 6.9 mph - 0.00 in   Overcast
2:54 PM 48.0 °F - 42.1 °F 80% 30.10 in 8.0 mi South 3.5 mph - 0.00 in Rain Light Rain
3:54 PM 48.9 °F - 41.0 °F 74% 30.11 in 10.0 mi Calm Calm - 0.00 in   Overcast
4:54 PM 48.9 °F - 42.1 °F 77% 30.11 in 10.0 mi Calm Calm - N/A   Overcast
5:54 PM 48.0 °F - 42.1 °F 80% 30.13 in 10.0 mi Calm Calm - N/A   Overcast
6:54 PM 48.2 °F - 39.2 °F 71% 30.13 in 10.0 mi South 4.6 mph - N/A   Overcast
7:54 PM 48.2 °F - 37.4 °F 66% 30.13 in 10.0 mi Calm Calm - N/A   Overcast
8:54 PM 48.0 °F - 39.0 °F 71% 30.15 in 10.0 mi Calm Calm - N/A   Overcast
9:54 PM 46.9 °F - 37.9 °F 71% 30.14 in 10.0 mi Calm Calm - N/A   Overcast
10:54 PM 46.9 °F - 39.9 °F 77% 30.13 in 10.0 mi Calm Calm - N/A   Overcast
11:54 PM 46.9 °F - 39.0 °F 74% 30.14 in 10.0 mi Calm Calm - N/A   Overcast